Notices

What's New in latest Release from April 7th, 2021:

- Updated Glossary, including Speed of Maximum Gust, and Total Hourly Precipitation

- Updated national and regional climate services offices contacts and prices information

- Addition of station inventory lists for 1981-2010, 1971-2000, and 1961-1990 Normals.

If you haven't already, please take our survey and provide feedback about our website: https://eccc.sondage-survey.ca/f/LanguageSelection.aspx?s=442ca660-fcf1-47c0-95a9-59707d6fd709

Hourly Data Report for February 16, 2004

SHERBROOKE A
QUEBEC

45°26'00.000" N
71°41'00.000" W
241.40 m
7028124
71610
YSC

Download Data

Hourly Data (February 2004)
Hourly Data Report for February 16, 2004
TIME
LST
Temp Definition
°C
Dew Point Definition
°C
Rel Hum Definition
%
Precip. Amount Definition
mm

Wind Dir Definition
10's deg

Wind Spd Definition
km/h
Visibility Definition
km
Stn Press Definition
kPa
Hmdx Definition


Wind Chill Definition


Weather Definition


00:00 -29.1 -35.8 52   13 4 15.0 99.80   -34  
01:00 -30.5 -36.6 55   9 4 15.0 99.81   -35  
02:00 -30.1 -35.9 57   9 4 15.0 99.85   -35  
03:00 -31.5 -37.9 53   11 6 15.0 99.82   -38  
04:00 -32.8 -38.9 54   5 4 15.0 99.82   -38  
05:00 -32.8 -38.6 56   8 4 15.0 99.88   -38  
06:00 -32.1 -38.2 55   12 6 15.0 99.90   -39  
07:00 -32.5 -38.8 53   20 4 15.0 99.96   -37  
08:00 -27.6 -33.9 55     0 24.1 100.04     Mainly Clear
09:00 -21.6 -30.4 45   25 6 24.1 100.12   -27 Mainly Clear
10:00 -16.7 -26.1 44   28 9 24.1 100.17   -23 Mainly Clear
11:00 -14.6 -23.8 45   27 28 24.1 100.18   -25 Clear
12:00 -13.5 -23.7 42   27 22 24.1 100.16   -23 Clear
13:00 -13.2 -24.1 39   28 28 24.1 100.15   -23 Clear
14:00 -13.2 -24.8 37   30 26 24.1 100.20   -23 Clear
15:00 -13.5 -25.6 35   31 17 24.1 100.28   -22 Clear
16:00 -14.2 -25.1 39   31 22 24.1 100.41   -24 Mainly Clear
17:00 -15.8 -26.6 39   34 7 24.1 100.51   -21 Mainly Clear
18:00 -17.5 -27.0 43   34 6 15.0 100.61   -22  
19:00 -21.7 -28.6 54     0 15.0 100.66      
20:00 -24.8 -31.2 55     0 15.0 100.71      
21:00 -25.1 -31.0 58   14 7 15.0 100.75   -32  
22:00 -26.6 -32.4 58     0 15.0 100.81      
23:00 -26.8 -33.5 53   8 6 15.0 100.83   -33  

Notes on Data Quality.

Legend

  • E = Estimated
  • M = Missing
  • NA = Not Available*
  • [empty] = Indicates an unobserved value
Date modified: